{"data":{"norad_id":67396,"epoch":"2026-09-20T22:41:32.486496Z","epoch_age_seconds":61588,"freshness":"FRESH","line1":"1 67396U 26004AK  26263.94551489  .00002751  00000+0  13163-3 0  9998","line2":"2 67396  97.4592 261.8408 0006898  16.5095 343.6363 15.19804669 38306","mean_motion":15.19804669,"eccentricity":0.0006898,"inclination_deg":97.4592,"raan_deg":261.8408,"arg_perigee_deg":16.5095,"mean_anomaly_deg":343.6363,"bstar":0.00013163,"rev_number":3830,"period_min":94.749018039765,"perigee_km":501.68146291565,"apogee_km":511.17941215247,"semimajor_km":6884.5674375341,"source":"CELESTRAK","updated_at":"2026-09-21T09:00:16.600276Z"}}